EN

Hourly Weather Lowech

Today, 24 November, Tuesday

Time Temperature Precipitation Wind Pressure Humidity
00:00 +6°C° 0 mm 1 mps 742 mmHg 79%
01:00 +6°C° 0 mm 1 mps 742 mmHg 80%
02:00 +6°C° 0 mm 1 mps 742 mmHg 81%
03:00 +5°C° 0 mm 1 mps 742 mmHg 82%
04:00 +5°C° 0 mm 1 mps 741 mmHg 84%
05:00 +5°C° 0 mm 1 mps 741 mmHg 85%
06:00 +5°C° 0 mm 1 mps 742 mmHg 86%
07:00 +4°C° 0 mm 1 mps 743 mmHg 86%
08:00 +3°C° 0 mm 0 mps 743 mmHg 86%
09:00 +5°C° 0 mm 1 mps 744 mmHg 79%
10:00 +6°C° 0 mm 1 mps 744 mmHg 72%
11:00 +7°C° 0 mm 1 mps 744 mmHg 65%
12:00 +8°C° 0 mm 1 mps 744 mmHg 63%
13:00 +8°C° 0 mm 1 mps 744 mmHg 60%
14:00 +9°C° 0 mm 1 mps 744 mmHg 57%
15:00 +8°C° 0 mm 1 mps 744 mmHg 62%
16:00 +7°C° 0 mm 1 mps 744 mmHg 66%
17:00 +6°C° 0 mm 1 mps 744 mmHg 70%
18:00 +5°C° 0 mm 0 mps 744 mmHg 72%
19:00 +4°C° 0 mm 0 mps 745 mmHg 75%
20:00 +4°C° 0 mm 0 mps 745 mmHg 77%
21:00 +4°C° 0 mm 0 mps 745 mmHg 78%
22:00 +3°C° 0 mm 0 mps 745 mmHg 78%
23:00 +3°C° 0 mm 0 mps 745 mmHg 79%

Tomorrow, 25 November, Wednesday

Time Temperature Precipitation Wind Pressure Humidity
00:00 +3°C° 0 mm 0 mps 745 mmHg 80%
01:00 +4°C° 0 mm 1 mps 745 mmHg 80%
02:00 +4°C° 0 mm 1 mps 745 mmHg 81%
03:00 +2°C° 0 mm 0 mps 745 mmHg 81%
04:00 +2°C° 0 mm 0 mps 744 mmHg 82%
05:00 +2°C° 0 mm 0 mps 744 mmHg 82%
06:00 +2°C° 0 mm 0 mps 744 mmHg 82%
07:00 +2°C° 0 mm 0 mps 744 mmHg 81%
08:00 +2°C° 0 mm 0 mps 744 mmHg 81%
09:00 +4°C° 0 mm 0 mps 744 mmHg 72%
10:00 +5°C° 0 mm 0 mps 744 mmHg 64%
11:00 +7°C° 0 mm 0 mps 744 mmHg 56%
12:00 +8°C° 0 mm 0 mps 744 mmHg 53%
13:00 +10°C° 0 mm 1 mps 743 mmHg 49%
14:00 +10°C° 0 mm 1 mps 743 mmHg 46%
15:00 +9°C° 0 mm 1 mps 743 mmHg 50%
16:00 +8°C° 0 mm 1 mps 742 mmHg 55%
17:00 +6°C° 0 mm 0 mps 742 mmHg 59%
18:00 +5°C° 0 mm 0 mps 742 mmHg 60%
19:00 +5°C° 0 mm 0 mps 743 mmHg 62%
20:00 +5°C° 0 mm 0 mps 743 mmHg 63%
21:00 +4°C° 0 mm 0 mps 743 mmHg 63%
22:00 +4°C° 0 mm 0 mps 743 mmHg 63%
23:00 +4°C° 0 mm 0 mps 743 mmHg 63%

Day after tomorrow, 26 November, Thursday

Time Temperature Precipitation Wind Pressure Humidity
00:00 +4°C° 0 mm 0 mps 743 mmHg 63%
01:00 +4°C° 0 mm 0 mps 743 mmHg 63%
02:00 +3°C° 0 mm 0 mps 743 mmHg 62%
03:00 +3°C° 0 mm 0 mps 743 mmHg 62%
04:00 +3°C° 0 mm 0 mps 742 mmHg 61%
05:00 +3°C° 0 mm 0 mps 742 mmHg 61%
06:00 +3°C° 0 mm 0 mps 742 mmHg 60%
07:00 +3°C° 0 mm 0 mps 742 mmHg 59%
08:00 +3°C° 0 mm 0 mps 742 mmHg 58%
09:00 +5°C° 0 mm 0 mps 742 mmHg 54%
10:00 +7°C° 0 mm 0 mps 742 mmHg 49%
11:00 +9°C° 0 mm 0 mps 742 mmHg 44%
12:00 +10°C° 0 mm 0 mps 742 mmHg 42%
13:00 +10°C° 0 mm 0 mps 742 mmHg 41%
14:00 +12°C° 0 mm 1 mps 742 mmHg 40%
15:00 +11°C° 0 mm 1 mps 741 mmHg 45%
16:00 +8°C° 0 mm 0 mps 741 mmHg 49%
17:00 +7°C° 0 mm 0 mps 740 mmHg 54%
18:00 +7°C° 0 mm 0 mps 740 mmHg 54%
19:00 +6°C° 0 mm 0 mps 741 mmHg 54%
20:00 +7°C° 0 mm 1 mps 741 mmHg 54%
21:00 +7°C° 0 mm 1 mps 741 mmHg 53%
22:00 +5°C° 0 mm 0 mps 741 mmHg 53%
23:00 +5°C° 0 mm 0 mps 741 mmHg 52%

27 November, Friday

Time Temperature Precipitation Wind Pressure Humidity
00:00 +5°C° 0 mm 0 mps 740 mmHg 51%
01:00 +5°C° 0 mm 0 mps 740 mmHg 51%
02:00 +5°C° 0 mm 0 mps 740 mmHg 51%
03:00 +4°C° 0 mm 0 mps 740 mmHg 50%
04:00 +4°C° 0 mm 0 mps 739 mmHg 50%
05:00 +4°C° 0 mm 0 mps 739 mmHg 50%
06:00 +4°C° 0 mm 0 mps 739 mmHg 49%
07:00 +4°C° 0 mm 0 mps 739 mmHg 49%
08:00 +4°C° 0 mm 0 mps 739 mmHg 48%
09:00 +6°C° 0 mm 0 mps 739 mmHg 44%
10:00 +8°C° 0 mm 0 mps 739 mmHg 41%
11:00 +10°C° 0 mm 0 mps 739 mmHg 37%
12:00 +11°C° 0 mm 1 mps 738 mmHg 36%
13:00 +12°C° 0 mm 1 mps 738 mmHg 36%
14:00 +13°C° 0 mm 1 mps 737 mmHg 35%
15:00 +10°C° 0 mm 0 mps 737 mmHg 40%
16:00 +9°C° 0 mm 0 mps 737 mmHg 44%
17:00 +7°C° 0 mm 0 mps 737 mmHg 49%
18:00 +7°C° 0 mm 0 mps 737 mmHg 49%
19:00 +7°C° 0 mm 0 mps 737 mmHg 49%
20:00 +7°C° 0 mm 1 mps 737 mmHg 49%
21:00 +7°C° 0 mm 1 mps 737 mmHg 50%
22:00 +7°C° 0 mm 1 mps 737 mmHg 50%
23:00 +7°C° 0 mm 1 mps 737 mmHg 50%

28 November, Saturday

Time Temperature Precipitation Wind Pressure Humidity
00:00 +7°C° 0 mm 1 mps 736 mmHg 50%
01:00 +7°C° 0 mm 1 mps 736 mmHg 50%
02:00 +7°C° 0 mm 1 mps 736 mmHg 50%
03:00 +7°C° 0 mm 1 mps 736 mmHg 49%
04:00 +7°C° 0 mm 1 mps 736 mmHg 49%
05:00 +7°C° 0 mm 1 mps 736 mmHg 48%
06:00 +7°C° 0 mm 1 mps 736 mmHg 48%
07:00 +7°C° 0 mm 1 mps 736 mmHg 47%
08:00 +7°C° 0 mm 1 mps 736 mmHg 47%
09:00 +8°C° 0 mm 0 mps 736 mmHg 44%
10:00 +9°C° 0 mm 0 mps 736 mmHg 41%
11:00 +11°C° 0 mm 0 mps 736 mmHg 38%
12:00 +12°C° 0 mm 1 mps 736 mmHg 38%
13:00 +13°C° 0 mm 1 mps 735 mmHg 38%
14:00 +13°C° 0 mm 1 mps 735 mmHg 37%
15:00 +12°C° 0 mm 1 mps 735 mmHg 41%
16:00 +11°C° 0 mm 1 mps 735 mmHg 45%
17:00 +10°C° 0 mm 1 mps 735 mmHg 49%
18:00 +9°C° 0 mm 1 mps 735 mmHg 49%
19:00 +9°C° 0 mm 1 mps 735 mmHg 50%
20:00 +9°C° 0 mm 1 mps 735 mmHg 50%
21:00 +9°C° 0 mm 1 mps 735 mmHg 51%
22:00 +8°C° 0 mm 1 mps 735 mmHg 52%
23:00 +8°C° 0 mm 1 mps 735 mmHg 54%

29 November, Sunday

Time Temperature Precipitation Wind Pressure Humidity
00:00 +8°C° 0 mm 1 mps 735 mmHg 55%
01:00 +8°C° 0 mm 1 mps 734 mmHg 57%
02:00 +7°C° 0 mm 1 mps 734 mmHg 59%
03:00 +7°C° 0 mm 1 mps 734 mmHg 60%
04:00 +7°C° 0 mm 1 mps 733 mmHg 62%
05:00 +7°C° 0 mm 1 mps 733 mmHg 64%
06:00 +7°C° 0 mm 1 mps 733 mmHg 66%
07:00 +7°C° 0 mm 1 mps 733 mmHg 67%
08:00 +7°C° 0 mm 1 mps 733 mmHg 69%
09:00 +8°C° 0 mm 1 mps 733 mmHg 67%
10:00 +10°C° 0 mm 1 mps 733 mmHg 64%
11:00 +11°C° 0 mm 1 mps 733 mmHg 61%
12:00 +12°C° 0 mm 1 mps 732 mmHg 62%
13:00 +12°C° 0 mm 1 mps 732 mmHg 62%
14:00 +13°C° 0 mm 1 mps 732 mmHg 63%
15:00 +13°C° 0 mm 2 mps 732 mmHg 66%
16:00 +12°C° 0 mm 2 mps 732 mmHg 70%
17:00 +12°C° 0 mm 2 mps 732 mmHg 74%
18:00 +11°C° 0 mm 3 mps 732 mmHg 76%
19:00 +11°C° 0 mm 3 mps 732 mmHg 79%
20:00 +11°C° 0 mm 3 mps 732 mmHg 81%
21:00 +11°C° 0.2 mm 4 mps 732 mmHg 82%
22:00 +11°C° 0.2 mm 4 mps 732 mmHg 83%
23:00 +11°C° 0.2 mm 4 mps 733 mmHg 85%
Show more